Tropical Cyclones
[Index]
Main Index Home Page Stock Weather Photos Extreme Storms Discussion Storm News and Storm Chasing Reports Tropical Cyclones / Hurricanes / Typhoons Weather Data and Links Wild Fires / Bushfires Weather Observation Techniques Weather Picture Catalogue Tornado Pictures and Reports Stock Video Footage and DVDs for sale
Season 1979-1980 Tropical Cyclone AMY Track Map
Season 1979-1980 Summaries: [BoM-AU] [JTWC-AU] [JTWC-SIO] [JTWC-SPAC] [JTWC-SH]
<<- Previous TC | BoM 1979-1980 Season | Next TC ->>

click for intensity scale information  Lat/long Grid: Show Hide

 Date Labels: Show Hide

Bureau of Meteorology Tropical Cyclone Data

Name: AMY
Number: 598 / 197980_05

04 Jan 1980 12:00 UTC to 12 Jan 1980 18:00 UTC

    date/time    lat    long    hPa   cat  kts
1980-01-04 12   14.5   120.5    998                     
1980-01-04 18   14.7   120.1    997                     
1980-01-05 00   14.8   119.8    995    1                
1980-01-05 06   14.8   119.8    992    1                
1980-01-05 12   14.8   119.7    990    1                
1980-01-05 18   14.8   119.7    987    1                
1980-01-06 00   14.8   119.7    985    2                
1980-01-06 06   14.8   119.5    980    2                
1980-01-06 12   14.8   119.3    975    2                
1980-01-06 18   14.9   119.1    970    3                
1980-01-07 00   15.0   118.8    965    3                
1980-01-07 06   15.4   118.5    959    3                
1980-01-07 12   15.8   118.3    954    4                
1980-01-07 18   16.4   118.3    949    4                
1980-01-08 00   17.1   118.3    945    4                
1980-01-08 06   17.6   118.3    937    4                
1980-01-08 12   18.1   118.4    932    4                
1980-01-08 18   18.5   118.5    925    5                
1980-01-09 00   18.8   118.8    920    5                
1980-01-09 06   19.2   119.3    918    5                
1980-01-09 12   19.4   119.6    916    5                
1980-01-09 18   19.6   119.8    915    5                
1980-01-10 00   19.8   119.8    915    5                
1980-01-10 06   20.3   119.6    915    5                
1980-01-10 12   20.6   119.2    917    5                
1980-01-10 18   21.1   118.4    974    2                
1980-01-11 00   22.0   117.9    985    2                
1980-01-11 06   22.8   117.0    989    1                
1980-01-11 12   24.0   116.8    992    1                
1980-01-11 18   25.3   116.9    995    1                
1980-01-12 00   26.4   117.0    999                     
1980-01-12 06   28.6   117.6   1000                     
1980-01-12 12   30.1   119.0   1002                     
1980-01-12 18   31.4   121.3   1003                     
Winds are 10-min average.

Tropical cyclone tracks developed by Michael Bath using data from the Bureau of Meteorology and Google Maps.


[Australian Severe Weather index] [Copyright Notice] [Email Contacts] [Search This Site] [Privacy Policy]
Document: tropical_cyclone_amy.htm Updated: 30 May 2013